Time [hr],Date,AE,AE1ch,AE2ch,Temperature,Humidity,Vaper Deficit,Illuminance,CO2,Pressure,SoilTemp,SoilWater,SolutionEC,Dielectricity,PoreEC,SoilEC,DC1ch,DC2ch,MASUA0010015,MASUA0010014,MASUA0010015
0,2023/06/01 00:00,,,,16.78,81.67,14.30,0,693,0,23.20,22.02,0.9379,11.70,1.8485,0.1776,,,
1,2023/06/01 01:00,,,,16.52,83.18,14.08,0,697,0,23.17,22.05,0.9383,11.72,1.8469,0.1778,,,
2,2023/06/01 02:00,,,,16.29,83.34,13.89,0,704,0,23.14,21.96,0.9418,11.67,1.8613,0.1780,,,
3,2023/06/01 03:00,,,,15.64,83.91,13.35,1,720,0,22.58,22.01,0.9414,11.70,1.8561,0.1777,,,
4,2023/06/01 04:00,,,,15.60,84.56,13.32,458,739,0,22.38,21.92,0.9401,11.65,1.8608,0.1769,,,
5,2023/06/01 05:00,,,,17.40,82.06,14.84,2734,695,0,22.53,21.93,0.9432,11.65,1.8664,0.1776,,,
6,2023/06/01 06:00,,,,21.59,72.20,18.99,6181,637,0,22.25,21.93,0.9435,11.65,1.8667,0.1774,,,
7,2023/06/01 07:00,,,,24.10,63.05,21.91,7851,625,0,22.09,21.91,0.9453,11.64,1.8722,0.1775,,,
8,2023/06/01 08:00,,,,25.80,57.82,24.11,9630,612,0,22.67,21.97,0.9409,11.67,1.8588,0.1774,,,
9,2023/06/01 09:00,3,3,0,28.17,54.98,27.49,13576,611,0,23.02,22.01,0.9421,11.70,1.8573,0.1782,,,
10,2023/06/01 10:00,1,1,0,29.20,52.06,29.09,11915,611,0,23.06,22.14,0.9334,11.76,1.8299,0.1772,,,
11,2023/06/01 11:00,,,,29.15,51.33,29.01,12537,603,0,23.50,22.21,0.9326,11.80,1.8223,0.1777,,,
12,2023/06/01 12:00,1,0,1,27.99,53.66,27.23,8781,583,0,23.64,22.30,0.9293,11.85,1.8088,0.1776,,,
13,2023/06/01 13:00,,,,28.34,53.73,27.75,12272,580,0,24.09,22.24,0.9342,11.82,1.8230,0.1787,,,
14,2023/06/01 14:00,,,,28.64,50.76,28.21,10489,580,0,23.85,22.27,0.9374,11.84,1.8271,0.1792,,,
15,2023/06/01 15:00,,,,28.93,51.59,28.66,9646,577,0,24.39,22.35,0.9345,11.89,1.8142,0.1795,,,
16,2023/06/01 16:00,,,,28.29,53.49,27.67,6899,580,0,24.30,22.34,0.9355,11.88,1.8176,0.1796,,,
17,2023/06/01 17:00,,,,27.32,54.89,26.23,5384,585,0,24.80,22.37,0.9345,11.89,1.8127,0.1799,,,
18,2023/06/01 18:00,,,,24.38,61.60,22.27,768,597,0,24.38,22.42,0.9361,11.92,1.8122,0.1801,,,
19,2023/06/01 19:00,,,,22.93,69.14,20.50,3,611,0,23.93,22.37,0.9381,11.90,1.8195,0.1799,,,
20,2023/06/01 20:00,,,,22.84,71.65,20.40,0,614,0,24.04,22.33,0.9358,11.87,1.8183,0.1794,,,
21,2023/06/01 21:00,,,,22.60,74.23,20.12,0,617,0,23.86,22.35,0.9365,11.88,1.8188,0.1794,,,
22,2023/06/01 22:00,1,1,0,22.45,76.39,19.94,0,624,0,24.16,22.37,0.9373,11.89,1.8184,0.1799,,,
23,2023/06/01 23:00,,,,22.07,80.64,19.51,0,641,0,23.62,22.30,0.9394,11.86,1.8278,0.1796,,,
24,2023/06/02 00:00,,,,21.77,84.97,19.19,0,655,0,23.27,22.22,0.9448,11.81,1.8449,0.1799,,,
25,2023/06/02 01:00,,,,21.62,86.81,19.01,0,656,0,24.14,22.25,0.9391,11.83,1.8317,0.1797,,,
26,2023/06/02 02:00,,,,20.74,86.79,18.07,0,652,0,23.07,22.25,0.9430,11.83,1.8392,0.1796,,,
27,2023/06/02 03:00,,,,20.65,87.47,17.98,0,662,0,23.90,22.17,0.9393,11.78,1.8389,0.1791,,,
28,2023/06/02 04:00,1,0,1,20.62,87.66,17.94,48,667,0,23.20,22.19,0.9439,11.80,1.8457,0.1795,,,
29,2023/06/02 05:00,,,,20.80,88.04,18.14,439,668,0,22.92,22.23,0.9443,11.82,1.8434,0.1795,,,
30,2023/06/02 06:00,,,,21.42,88.33,18.79,1321,678,0,23.17,22.25,0.9416,11.83,1.8369,0.1793,,,
31,2023/06/02 07:00,,,,22.15,88.44,19.61,2000,661,0,23.28,22.22,0.9414,11.81,1.8387,0.1793,,,
32,2023/06/02 08:00,,,,22.33,88.28,19.81,2369,655,0,22.85,22.16,0.9471,11.78,1.8546,0.1797,,,
33,2023/06/02 09:00,,,,23.14,88.03,20.75,4201,633,0,22.48,22.14,0.9501,11.77,1.8621,0.1799,,,
34,2023/06/02 10:00,,,,24.03,86.54,21.83,6343,618,0,22.64,22.17,0.9491,11.78,1.8579,0.1800,,,
35,2023/06/02 11:00,,,,24.52,84.36,22.44,6783,609,0,23.02,22.14,0.9493,11.77,1.8604,0.1802,,,
36,2023/06/02 12:00,,,,24.71,84.50,22.68,6301,615,0,22.89,22.17,0.9511,11.78,1.8617,0.1805,,,
37,2023/06/02 13:00,,,,25.11,85.31,23.20,5001,610,0,22.78,22.23,0.9508,11.82,1.8564,0.1807,,,
38,2023/06/02 14:00,,,,25.15,86.39,23.24,3917,616,0,22.82,22.33,0.9499,11.87,1.8463,0.1810,,,
39,2023/06/02 15:00,,,,24.32,87.84,22.19,1445,654,0,23.22,22.31,0.9440,11.86,1.8363,0.1802,,,
40,2023/06/02 16:00,,,,22.48,88.09,19.99,591,726,0,22.89,22.26,0.9492,11.83,1.8507,0.1806,,,
41,2023/06/02 17:00,,,,22.02,88.24,19.46,455,738,0,23.05,22.25,0.9502,11.83,1.8535,0.1809,,,
42,2023/06/02 18:00,,,,21.57,88.38,18.96,55,696,0,23.55,22.21,0.9485,11.81,1.8530,0.1808,,,
43,2023/06/02 19:00,,,,21.57,88.72,18.96,1,712,0,22.94,22.30,0.9451,11.86,1.8392,0.1801,,,
44,2023/06/02 20:00,1,1,0,21.24,88.46,18.60,0,640,0,23.04,22.24,0.9490,11.82,1.8514,0.1806,,,
45,2023/06/02 21:00,2,0,2,20.84,88.42,18.17,0,632,0,22.95,22.25,0.9512,11.83,1.8556,0.1810,,,
46,2023/06/02 22:00,4,0,4,20.59,88.60,17.91,0,631,0,23.24,22.25,0.9486,11.83,1.8498,0.1808,,,
47,2023/06/02 23:00,,,,20.50,88.62,17.82,0,629,0,22.79,22.25,0.9506,11.83,1.8543,0.1807,,,
48,2023/06/03 00:00,1,0,1,20.52,88.75,17.84,0,633,0,22.69,22.20,0.9547,11.80,1.8667,0.1812,,,
49,2023/06/03 01:00,,,,20.69,89.02,18.02,0,635,0,22.28,22.21,0.9541,11.81,1.8641,0.1808,,,
50,2023/06/03 02:00,2,0,2,20.89,89.11,18.23,0,639,0,22.54,22.22,0.9538,11.81,1.8624,0.1810,,,
51,2023/06/03 03:00,1,0,1,21.02,89.26,18.36,0,657,0,22.68,22.23,0.9542,11.82,1.8625,0.1812,,,
52,2023/06/03 04:00,3,0,3,21.02,89.39,18.36,35,662,0,22.44,22.31,0.9562,11.86,1.8601,0.1818,,,
53,2023/06/03 05:00,,,,20.98,89.03,18.33,1263,644,0,22.22,22.24,0.9557,11.82,1.8650,0.1812,,,
54,2023/06/03 06:00,,,,21.69,87.83,19.09,3293,623,0,22.69,22.24,0.9540,11.82,1.8616,0.1812,,,
55,2023/06/03 07:00,,,,22.09,83.95,19.54,3691,613,0,22.34,22.21,0.9608,11.81,1.8771,0.1821,,,
56,2023/06/03 08:00,,,,20.68,84.32,18.01,1789,617,0,22.68,22.25,0.9559,11.83,1.8644,0.1817,,,
57,2023/06/03 09:00,,,,22.96,84.24,20.54,11173,616,0,22.51,22.30,0.9577,11.85,1.8640,0.1821,,,
58,2023/06/03 10:00,,,,28.05,66.50,27.31,19652,575,0,22.60,22.28,0.9587,11.84,1.8677,0.1823,,,
59,2023/06/03 11:00,,,,28.04,66.18,27.30,13079,577,0,22.71,22.43,0.9571,11.93,1.8514,0.1828,,,
60,2023/06/03 12:00,,,,28.11,64.85,27.39,21267,576,0,22.71,22.44,0.9579,11.94,1.8520,0.1830,,,
61,2023/06/03 13:00,,,,29.15,61.67,29.00,24515,571,0,23.04,22.47,0.9556,11.95,1.8458,0.1830,,,
62,2023/06/03 14:00,1,0,1,29.11,66.11,28.94,16497,565,0,24.11,22.55,0.9521,12.00,1.8324,0.1836,,,
63,2023/06/03 15:00,,,,29.63,60.80,29.77,11821,559,0,23.73,22.58,0.9575,12.01,1.8405,0.1845,,,
64,2023/06/03 16:00,,,,28.45,61.30,27.91,5992,569,0,23.71,22.67,0.9568,12.06,1.8314,0.1848,,,
65,2023/06/03 17:00,,,,28.18,51.68,27.51,5964,555,0,24.24,22.59,0.9571,12.02,1.8385,0.1849,,,
66,2023/06/03 18:00,,,,25.07,45.20,23.14,1503,560,0,24.30,22.75,0.9584,12.11,1.8282,0.1860,,,
67,2023/06/03 19:00,,,,22.37,46.87,19.86,8,558,0,24.67,22.70,0.9568,12.08,1.8294,0.1857,,,
68,2023/06/03 20:00,,,,21.23,47.06,18.60,0,557,0,24.54,22.69,0.9583,12.07,1.8328,0.1859,,,
69,2023/06/03 21:00,,,,20.77,46.46,18.10,0,554,0,24.33,22.62,0.9617,12.04,1.8450,0.1860,,,
70,2023/06/03 22:00,1,1,0,20.25,50.12,17.56,0,567,0,23.74,22.59,0.9681,12.02,1.8594,0.1866,,,
71,2023/06/03 23:00,,,,18.81,56.48,16.14,0,580,0,23.93,22.56,0.9670,12.00,1.8604,0.1864,,,
72,2023/06/04 00:00,,,,17.58,62.86,15.00,0,600,0,23.52,22.55,0.9674,12.00,1.8616,0.1861,,,
73,2023/06/04 01:00,,,,17.80,60.29,15.20,0,593,0,23.30,22.50,0.9720,11.97,1.8749,0.1865,,,
74,2023/06/04 02:00,,,,16.54,68.40,14.10,0,619,0,23.25,22.45,0.9706,11.94,1.8760,0.1859,,,
75,2023/06/04 03:00,1,1,0,15.86,73.19,13.53,165,631,0,22.78,22.49,0.9715,11.96,1.8749,0.1859,,,
76,2023/06/04 04:00,,,,16.87,72.01,14.38,2387,623,0,22.25,22.43,0.9733,11.93,1.8830,0.1855,,,
77,2023/06/04 05:00,,,,20.13,68.41,17.44,6250,594,0,22.09,22.47,0.9747,11.95,1.8827,0.1858,,,
78,2023/06/04 06:00,,,,22.22,56.20,19.68,6790,588,0,22.19,22.47,0.9745,11.95,1.8820,0.1859,,,
79,2023/06/04 07:00,1,1,0,26.26,52.84,24.74,6634,590,0,21.84,22.48,0.9812,11.95,1.8944,0.1869,,,
80,2023/06/04 08:00,4,2,2,29.48,48.04,29.53,7890,571,0,22.18,22.53,0.9755,11.98,1.8792,0.1863,,,
81,2023/06/04 09:00,,,,30.69,49.17,31.52,11808,547,0,22.53,22.57,0.9789,12.01,1.8823,0.1875,,,
82,2023/06/04 10:00,2,1,1,31.00,46.82,32.05,12208,553,0,22.86,22.59,0.9774,12.02,1.8774,0.1876,,,
83,2023/06/04 11:00,6,6,0,32.05,46.12,33.89,15521,548,0,23.07,22.72,0.9747,12.09,1.8617,0.1879,,,
84,2023/06/04 12:00,,,,33.21,45.52,36.05,35404,559,0,24.05,22.85,0.9699,12.16,1.8421,0.1885,,,
85,2023/06/04 13:00,3,3,0,33.31,43.82,36.23,25171,539,0,24.20,22.97,0.9735,12.23,1.8393,0.1899,,,
86,2023/06/04 14:00,,,,30.09,49.35,30.52,11111,551,0,25.21,23.04,0.9705,12.27,1.8281,0.1906,,,
87,2023/06/04 15:00,,,,29.98,51.04,30.33,10464,558,0,25.02,23.10,0.9700,12.31,1.8220,0.1907,,,
88,2023/06/04 16:00,,,,29.82,48.07,30.08,9632,554,0,24.90,23.07,0.9792,12.29,1.8420,0.1922,,,
89,2023/06/04 17:00,,,,29.02,49.65,28.80,8357,565,0,24.97,23.11,0.9824,12.31,1.8448,0.1931,,,
90,2023/06/04 18:00,1,0,1,25.47,61.84,23.67,1119,599,0,25.22,23.15,0.9800,12.33,1.8372,0.1930,,,
91,2023/06/04 19:00,,,,23.07,72.71,20.67,6,634,0,24.90,23.26,0.9848,12.40,1.8373,0.1942,,,
92,2023/06/04 20:00,,,,21.74,78.22,19.15,0,653,0,25.40,23.22,0.9831,12.37,1.8377,0.1941,,,
93,2023/06/04 21:00,,,,21.57,80.99,18.96,0,668,0,25.16,23.21,0.9840,12.37,1.8394,0.1941,,,
94,2023/06/04 22:00,,,,21.41,82.48,18.79,0,670,0,24.93,23.16,0.9909,12.34,1.8569,0.1950,,,
95,2023/06/04 23:00,,,,20.79,83.53,18.12,0,687,0,23.67,23.16,0.9948,12.34,1.8637,0.1946,,,
96,2023/06/05 00:00,,,,20.06,84.40,17.37,0,697,0,24.08,23.17,0.9925,12.35,1.8591,0.1946,,,
97,2023/06/05 01:00,,,,19.80,85.37,17.10,0,707,0,24.28,23.14,0.9974,12.33,1.8702,0.1955,,,
98,2023/06/05 02:00,,,,19.83,85.71,17.14,0,689,0,24.07,23.17,0.9981,12.34,1.8696,0.1956,,,
99,2023/06/05 03:00,,,,19.22,84.68,16.54,1,688,0,23.69,23.05,1.0003,12.28,1.8833,0.1951,,,
100,2023/06/05 04:00,,,,18.74,82.81,16.07,307,671,0,23.68,23.16,1.0016,12.34,1.8768,0.1959,,,
101,2023/06/05 05:00,,,,19.47,73.93,16.78,3047,632,0,22.58,23.14,1.0088,12.33,1.8915,0.1963,,,
102,2023/06/05 06:00,,,,22.04,62.41,19.48,6982,613,0,23.36,23.14,1.0020,12.33,1.8792,0.1956,,,
103,2023/06/05 07:00,,,,24.25,54.52,22.10,8816,593,0,23.32,23.12,1.0070,12.32,1.8904,0.1964,,,
104,2023/06/05 08:00,1,1,0,26.17,47.50,24.62,10505,590,0,22.88,23.13,1.0134,12.32,1.9015,0.1973,,,
105,2023/06/05 09:00,1,1,0,29.04,46.24,28.82,11227,577,0,23.46,23.27,1.0108,12.40,1.8847,0.1981,,,
106,2023/06/05 10:00,3,3,0,30.53,37.44,31.25,12098,542,0,23.96,23.36,1.0087,12.45,1.8740,0.1986,,,
107,2023/06/05 11:00,1,1,0,30.81,35.11,31.73,13669,534,0,23.94,23.38,1.0145,12.47,1.8827,0.1998,,,
108,2023/06/05 12:00,2,2,0,32.76,33.12,35.19,31991,544,0,24.34,23.51,1.0123,12.54,1.8686,0.2004,,,
109,2023/06/05 13:00,1,0,1,34.01,32.75,37.59,26767,532,0,24.37,23.58,1.0136,12.58,1.8651,0.2011,,,
110,2023/06/05 14:00,2,2,0,33.69,38.54,36.98,15066,531,0,25.80,23.68,1.0104,12.64,1.8520,0.2023,,,
111,2023/06/05 15:00,,,,31.79,34.08,33.43,7784,536,0,25.33,23.78,1.0096,12.69,1.8425,0.2022,,,
112,2023/06/05 16:00,,,,30.56,38.11,31.29,7420,545,0,25.73,23.85,1.0132,12.73,1.8436,0.2036,,,
113,2023/06/05 17:00,,,,29.51,39.00,29.58,5809,557,0,25.54,23.78,1.0199,12.70,1.8609,0.2045,,,
114,2023/06/05 18:00,,,,26.66,42.97,25.30,1487,572,0,26.18,23.77,1.0231,12.69,1.8680,0.2056,,,
115,2023/06/05 19:00,,,,23.72,54.48,21.45,8,606,0,25.33,23.88,1.0229,12.75,1.8588,0.2054,,,
116,2023/06/05 20:00,,,,22.42,57.53,19.91,0,611,0,25.53,23.87,1.0231,12.75,1.8599,0.2055,,,
117,2023/06/05 21:00,,,,21.53,63.28,18.92,0,628,0,24.43,23.73,1.0311,12.67,1.8854,0.2054,,,
118,2023/06/05 22:00,,,,20.73,68.82,18.06,0,646,0,25.22,23.78,1.0324,12.69,1.8842,0.2066,,,
119,2023/06/05 23:00,,,,20.24,73.79,17.55,0,669,0,23.71,23.85,1.0381,12.73,1.8892,0.2067,,,
120,2023/06/06 00:00,,,,19.67,77.68,16.98,0,700,0,24.73,23.72,1.0327,12.66,1.8890,0.2059,,,
121,2023/06/06 01:00,,,,18.99,78.28,16.31,0,683,0,24.50,23.86,1.0354,12.74,1.8834,0.2069,,,
122,2023/06/06 02:00,,,,18.07,80.36,15.44,0,696,0,23.89,23.78,1.0395,12.70,1.8967,0.2068,,,
123,2023/06/06 03:00,,,,17.67,82.65,15.08,1,712,0,23.66,23.79,1.0429,12.70,1.9026,0.2073,,,
124,2023/06/06 04:00,,,,17.39,83.74,14.84,331,722,0,23.27,23.73,1.0477,12.67,1.9157,0.2075,,,
125,2023/06/06 05:00,,,,19.13,77.36,16.45,2908,657,0,23.25,23.76,1.0477,12.68,1.9139,0.2077,,,
126,2023/06/06 06:00,,,,22.56,63.52,20.07,7596,614,0,23.30,23.74,1.0498,12.67,1.9190,0.2080,,,
127,2023/06/06 07:00,,,,24.68,57.84,22.64,9254,607,0,23.10,23.79,1.0497,12.70,1.9153,0.2081,,,
128,2023/06/06 08:00,,,,25.70,57.34,23.97,11183,593,0,23.22,23.73,1.0542,12.67,1.9280,0.2088,,,
129,2023/06/06 09:00,,,,26.09,53.55,24.50,12754,585,0,22.67,23.86,1.0548,12.74,1.9182,0.2090,,,
130,2023/06/06 10:00,,,,27.16,54.50,26.01,15016,584,0,23.06,23.91,1.0540,12.77,1.9133,0.2095,,,
131,2023/06/06 11:00,,,,28.79,49.76,28.44,18293,577,0,23.48,24.05,1.0471,12.85,1.8893,0.2093,,,
132,2023/06/06 12:00,2,0,2,30.09,50.86,30.51,16770,572,0,24.17,24.04,1.0473,12.84,1.8909,0.2099,,,
133,2023/06/06 13:00,,,,28.29,52.02,27.67,7154,587,0,24.70,24.12,1.0534,12.89,1.8952,0.2121,,,
134,2023/06/06 14:00,,,,26.88,55.38,25.60,4634,586,0,23.85,24.16,1.0582,12.91,1.9009,0.2124,,,
135,2023/06/06 15:00,,,,27.08,57.63,25.89,6345,578,0,24.73,24.22,1.0585,12.95,1.8964,0.2137,,,
136,2023/06/06 16:00,,,,26.28,58.43,24.77,3097,584,0,24.59,24.22,1.0627,12.95,1.9044,0.2144,,,
137,2023/06/06 17:00,,,,25.27,60.11,23.41,1547,592,0,24.79,24.23,1.0645,12.96,1.9061,0.2150,,,
138,2023/06/06 18:00,,,,23.70,63.69,21.42,287,599,0,24.94,24.25,1.0646,12.97,1.9054,0.2153,,,
139,2023/06/06 19:00,,,,21.86,71.07,19.28,1,601,0,25.04,24.24,1.0664,12.96,1.9089,0.2157,,,
140,2023/06/06 20:00,,,,21.07,70.35,18.42,0,599,0,24.27,24.25,1.0728,12.97,1.9199,0.2163,,,
141,2023/06/06 21:00,,,,20.81,73.06,18.14,0,609,0,23.87,24.25,1.0759,12.97,1.9250,0.2165,,,
142,2023/06/06 22:00,,,,20.50,75.46,17.82,0,610,0,24.09,24.27,1.0760,12.98,1.9240,0.2168,,,
143,2023/06/06 23:00,,,,20.12,77.84,17.43,0,620,0,24.14,24.26,1.0742,12.97,1.9216,0.2165,,,
144,2023/06/07 00:00,,,,19.89,79.45,17.19,0,626,0,23.56,24.30,1.0800,12.99,1.9291,0.2172,,,
145,2023/06/07 01:00,,,,19.60,80.35,16.90,0,623,0,23.78,24.30,1.0774,12.99,1.9243,0.2169,,,
146,2023/06/07 02:00,,,,19.45,82.04,16.76,0,638,0,22.89,24.23,1.0882,12.96,1.9489,0.2178,,,
147,2023/06/07 03:00,,,,19.18,83.59,16.50,2,645,0,23.22,24.29,1.0882,12.99,1.9444,0.2185,,,
148,2023/06/07 04:00,,,,19.10,84.89,16.41,192,665,0,23.13,24.26,1.0871,12.97,1.9443,0.2180,,,
149,2023/06/07 05:00,,,,19.99,85.03,17.30,1683,657,0,23.18,24.30,1.0886,12.99,1.9444,0.2186,,,
150,2023/06/07 06:00,,,,21.91,81.34,19.34,5132,622,0,23.10,24.24,1.0934,12.96,1.9574,0.2191,,,
151,2023/06/07 07:00,,,,24.54,70.48,22.46,7719,602,0,22.91,24.26,1.0954,12.97,1.9597,0.2195,,,
152,2023/06/07 08:00,,,,26.63,63.35,25.25,7335,587,0,23.05,24.31,1.0949,13.01,1.9541,0.2198,,,
153,2023/06/07 09:00,1,1,0,29.90,60.35,30.20,10641,564,0,23.42,24.43,1.0876,13.07,1.9319,0.2194,,,
154,2023/06/07 10:00,1,1,0,31.93,56.66,33.69,12178,553,0,23.90,24.47,1.0902,13.10,1.9332,0.2206,,,
155,2023/06/07 11:00,5,5,0,33.32,51.72,36.25,15230,552,0,23.79,24.58,1.0877,13.16,1.9206,0.2206,,,
156,2023/06/07 12:00,1,1,0,34.04,50.06,37.66,30779,548,0,24.31,24.70,1.0848,13.24,1.9055,0.2212,,,
157,2023/06/07 13:00,1,1,0,34.16,47.46,37.89,26371,538,0,25.43,24.82,1.0839,13.30,1.8954,0.2228,,,
158,2023/06/07 14:00,,,,33.91,49.38,37.40,16016,554,0,24.70,24.84,1.0889,13.32,1.9021,0.2232,,,
159,2023/06/07 15:00,,,,32.35,49.98,34.44,9738,558,0,25.14,24.88,1.0880,13.34,1.8978,0.2237,,,
160,2023/06/07 16:00,,,,30.90,49.90,31.87,7444,545,0,26.37,24.93,1.0853,13.37,1.8893,0.2247,,,
161,2023/06/07 17:00,,,,28.86,56.59,28.54,5560,573,0,25.72,24.92,1.0938,13.36,1.9049,0.2257,,,
162,2023/06/07 18:00,,,,26.09,62.75,24.51,1182,597,0,25.92,25.01,1.0935,13.42,1.8974,0.2264,,,
163,2023/06/07 19:00,,,,24.67,62.83,22.63,7,602,0,24.87,25.01,1.0991,13.42,1.9071,0.2264,,,
164,2023/06/07 20:00,,,,23.87,66.08,21.63,0,623,0,24.65,24.89,1.1062,13.34,1.9291,0.2269,,,
165,2023/06/07 21:00,,,,23.32,71.89,20.97,0,664,0,25.38,24.92,1.1005,13.37,1.9164,0.2267,,,
166,2023/06/07 22:00,,,,23.05,72.67,20.64,0,658,0,25.41,24.96,1.1013,13.39,1.9148,0.2272,,,
167,2023/06/07 23:00,,,,23.09,73.28,20.68,0,649,0,24.98,24.93,1.1055,13.37,1.9241,0.2274,,,
168,2023/06/08 00:00,,,,22.68,75.44,20.21,0,658,0,24.61,24.93,1.1079,13.37,1.9285,0.2275,,,
169,2023/06/08 01:00,,,,22.33,75.88,19.81,0,652,0,24.87,24.92,1.1041,13.36,1.9230,0.2269,,,
170,2023/06/08 02:00,,,,22.00,77.73,19.44,0,665,0,24.10,24.93,1.1137,13.37,1.9383,0.2282,,,
171,2023/06/08 03:00,,,,21.32,80.83,18.69,1,691,0,24.55,24.88,1.1102,13.34,1.9362,0.2276,,,
172,2023/06/08 04:00,,,,20.46,82.84,17.78,285,713,0,24.20,24.85,1.1117,13.32,1.9415,0.2274,,,
173,2023/06/08 05:00,,,,21.75,82.50,19.16,2493,689,0,24.28,24.87,1.1136,13.34,1.9432,0.2280,,,
174,2023/06/08 06:00,,,,25.70,73.99,23.97,7078,665,0,24.16,24.87,1.1131,13.34,1.9418,0.2278,,,
175,2023/06/08 07:00,,,,27.28,69.69,26.18,8562,645,0,23.76,24.87,1.1160,13.34,1.9471,0.2279,,,
176,2023/06/08 08:00,,,,30.53,61.02,31.25,10414,606,0,24.20,24.93,1.1154,13.37,1.9415,0.2286,,,
177,2023/06/08 09:00,,,,32.13,52.76,34.05,12859,603,0,24.21,25.03,1.1187,13.43,1.9393,0.2298,,,
178,2023/06/08 10:00,1,1,0,31.92,49.22,33.66,13373,574,0,25.12,25.07,1.1117,13.46,1.9240,0.2296,,,
179,2023/06/08 11:00,,,,29.99,47.42,30.35,8238,562,0,25.44,25.18,1.1140,13.52,1.9197,0.2310,,,
180,2023/06/08 12:00,,,,28.15,51.55,27.46,4955,584,0,25.62,25.12,1.1166,13.49,1.9288,0.2314,,,
181,2023/06/08 13:00,,,,28.57,55.75,28.09,5699,584,0,26.12,25.15,1.1159,13.50,1.9257,0.2320,,,
182,2023/06/08 14:00,,,,29.21,54.06,29.10,7688,575,0,26.13,25.19,1.1113,13.53,1.9143,0.2313,,,
183,2023/06/08 15:00,,,,28.24,56.21,27.60,4694,585,0,23.00,25.16,1.1304,13.51,1.9498,0.2316,,,
184,2023/06/08 16:00,,,,27.16,59.75,26.00,3649,600,0,25.22,25.27,1.1184,13.57,1.9203,0.2322,,,
185,2023/06/08 17:00,,,,26.23,62.63,24.69,1902,603,0,25.88,25.29,1.1157,13.58,1.9147,0.2324,,,
186,2023/06/08 18:00,,,,25.08,66.53,23.16,304,616,0,25.82,25.22,1.1211,13.54,1.9292,0.2331,,,
187,2023/06/08 19:00,,,,24.00,71.78,21.79,1,620,0,25.47,25.25,1.1245,13.56,1.9323,0.2336,,,
188,2023/06/08 20:00,,,,22.85,79.06,20.41,0,634,0,25.32,25.25,1.1306,13.56,1.9429,0.2347,,,
189,2023/06/08 21:00,,,,22.21,80.92,19.68,0,635,0,24.94,25.21,1.1290,13.54,1.9431,0.2337,,,
190,2023/06/08 22:00,,,,21.83,81.31,19.25,0,631,0,24.98,25.20,1.1300,13.53,1.9458,0.2339,,,
191,2023/06/08 23:00,,,,21.74,83.02,19.15,0,636,0,24.38,25.14,1.1372,13.49,1.9630,0.2344,,,
192,2023/06/09 00:00,,,,21.23,82.26,18.59,0,631,0,24.20,25.13,1.1332,13.49,1.9572,0.2333,,,
193,2023/06/09 01:00,,,,20.82,82.99,18.15,0,638,0,24.47,25.15,1.1384,13.50,1.9646,0.2348,,,
194,2023/06/09 02:00,,,,20.79,84.44,18.12,0,645,0,24.52,25.16,1.1341,13.51,1.9561,0.2340,,,
195,2023/06/09 03:00,1,0,1,20.49,85.63,17.81,0,642,0,24.56,25.13,1.1334,13.49,1.9571,0.2338,,,
196,2023/06/09 04:00,2,0,2,20.26,86.69,17.57,28,637,0,24.21,25.11,1.1350,13.48,1.9614,0.2336,,,
197,2023/06/09 05:00,1,0,1,20.28,87.36,17.59,452,634,0,23.86,25.09,1.1431,13.47,1.9768,0.2348,,,
198,2023/06/09 06:00,,,,20.61,87.48,17.93,560,632,0,23.94,25.04,1.1380,13.44,1.9720,0.2336,,,
199,2023/06/09 07:00,,,,20.91,87.70,18.25,1840,632,0,24.02,25.07,1.1437,13.45,1.9797,0.2350,,,
200,2023/06/09 08:00,,,,21.64,85.70,19.03,4132,613,0,23.72,25.06,1.1467,13.45,1.9855,0.2352,,,
201,2023/06/09 09:00,,,,22.40,84.54,19.89,6121,604,0,22.68,25.12,1.1529,13.48,1.9919,0.2356,,,
202,2023/06/09 10:00,,,,23.70,81.22,21.42,7365,600,0,23.43,25.14,1.1490,13.50,1.9834,0.2358,,,
203,2023/06/09 11:00,,,,24.28,82.74,22.14,6317,602,0,23.47,25.05,1.1479,13.44,1.9885,0.2351,,,
204,2023/06/09 12:00,,,,24.59,80.07,22.53,7487,598,0,23.72,25.11,1.1511,13.48,1.9897,0.2364,,,
205,2023/06/09 13:00,,,,24.76,76.57,22.74,9531,593,0,23.81,25.18,1.1494,13.52,1.9806,0.2365,,,
206,2023/06/09 14:00,,,,26.69,74.30,25.34,11202,588,0,24.11,25.09,1.1518,13.47,1.9919,0.2369,,,
207,2023/06/09 15:00,,,,26.76,73.70,25.43,7110,601,0,23.65,25.21,1.1481,13.54,1.9764,0.2362,,,
208,2023/06/09 16:00,,,,25.71,77.80,24.00,3295,610,0,23.99,25.26,1.1484,13.57,1.9729,0.2370,,,
209,2023/06/09 17:00,,,,24.84,81.64,22.85,2013,624,0,24.07,25.27,1.1461,13.57,1.9679,0.2366,,,
210,2023/06/09 18:00,,,,24.03,84.69,21.83,602,659,0,24.50,25.35,1.1474,13.62,1.9640,0.2378,,,
211,2023/06/09 19:00,,,,22.94,86.47,20.51,6,713,0,24.28,25.27,1.1518,13.57,1.9778,0.2380,,,
212,2023/06/09 20:00,,,,22.23,86.83,19.69,0,702,0,23.80,25.33,1.1548,13.61,1.9782,0.2384,,,
213,2023/06/09 21:00,,,,22.43,88.00,19.93,0,721,0,24.11,25.37,1.1559,13.63,1.9769,0.2392,,,
214,2023/06/09 22:00,,,,22.78,88.63,20.33,0,725,0,23.03,25.27,1.1594,13.57,1.9908,0.2382,,,
215,2023/06/09 23:00,,,,22.65,87.89,20.18,0,664,0,23.93,25.29,1.1531,13.58,1.9790,0.2380,,,
216,2023/06/10 00:00,,,,21.91,86.41,19.34,0,622,0,23.48,25.27,1.1637,13.57,1.9982,0.2396,,,
217,2023/06/10 01:00,,,,21.62,86.40,19.01,0,623,0,23.59,25.32,1.1584,13.60,1.9854,0.2389,,,
218,2023/06/10 02:00,,,,21.47,86.49,18.85,0,631,0,23.69,25.36,1.1601,13.63,1.9851,0.2396,,,
219,2023/06/10 03:00,,,,21.41,86.58,18.79,1,634,0,22.83,25.33,1.1665,13.61,1.9981,0.2398,,,
220,2023/06/10 04:00,,,,21.42,86.88,18.80,160,647,0,23.51,25.31,1.1632,13.60,1.9941,0.2397,,,
221,2023/06/10 05:00,,,,22.06,86.29,19.51,1931,641,0,23.05,25.31,1.1674,13.60,2.0016,0.2401,,,
222,2023/06/10 06:00,,,,24.95,79.34,22.99,7754,614,0,22.63,25.33,1.1720,13.61,2.0081,0.2407,,,
223,2023/06/10 07:00,,,,25.63,75.88,23.89,8125,611,0,23.05,25.30,1.1719,13.59,2.0104,0.2409,,,
224,2023/06/10 08:00,,,,26.62,72.08,25.24,10461,599,0,23.36,25.43,1.1700,13.67,1.9969,0.2416,,,
225,2023/06/10 09:00,,,,28.65,71.50,28.22,9290,597,0,23.63,25.43,1.1660,13.67,1.9897,0.2411,,,
226,2023/06/10 10:00,,,,29.99,69.83,30.36,10141,586,0,23.43,25.53,1.1712,13.73,1.9912,0.2425,,,
227,2023/06/10 11:00,,,,29.32,72.72,29.27,7127,586,0,24.05,25.53,1.1649,13.73,1.9801,0.2420,,,
228,2023/06/10 12:00,,,,30.08,70.41,30.50,9234,586,0,24.64,25.57,1.1658,13.76,1.9782,0.2431,,,
229,2023/06/10 13:00,,,,30.30,69.47,30.86,8605,596,0,24.80,25.61,1.1680,13.78,1.9791,0.2439,,,
230,2023/06/10 14:00,,,,29.80,67.20,30.04,8699,587,0,24.74,25.62,1.1719,13.79,1.9848,0.2448,,,
231,2023/06/10 15:00,,,,29.69,67.12,29.87,7351,605,0,25.26,25.63,1.1808,13.79,1.9994,0.2473,,,
232,2023/06/10 16:00,,,,27.76,71.16,26.87,5524,631,0,25.03,25.75,1.1689,13.86,1.9700,0.2452,,,
233,2023/06/10 17:00,,,,27.11,71.98,25.93,2963,635,0,25.17,25.68,1.1760,13.82,1.9874,0.2464,,,
234,2023/06/10 18:00,,,,25.71,78.72,23.99,520,667,0,24.08,25.71,1.1809,13.84,1.9930,0.2464,,,
235,2023/06/10 19:00,,,,24.55,78.60,22.48,3,660,0,25.07,25.67,1.1736,13.82,1.9837,0.2458,,,
236,2023/06/10 20:00,,,,23.55,80.55,21.24,0,649,0,24.53,25.68,1.1747,13.82,1.9847,0.2455,,,
237,2023/06/10 21:00,,,,22.88,82.80,20.44,0,652,0,24.59,25.73,1.1819,13.85,1.9935,0.2473,,,
238,2023/06/10 22:00,,,,22.76,82.56,20.31,0,643,0,24.46,25.70,1.1768,13.83,1.9871,0.2459,,,
239,2023/06/10 23:00,,,,22.53,84.13,20.03,0,664,0,24.50,25.69,1.1811,13.83,1.9953,0.2468,,,
240,2023/06/11 00:00,,,,22.32,86.43,19.80,0,692,0,23.99,25.62,1.1841,13.79,2.0053,0.2464,,,
241,2023/06/11 01:00,,,,22.46,86.48,19.95,0,682,0,24.46,25.65,1.1796,13.80,1.9958,0.2462,,,
242,2023/06/11 02:00,,,,22.02,86.91,19.46,0,681,0,24.14,25.67,1.1835,13.82,2.0007,0.2468,,,
243,2023/06/11 03:00,,,,21.98,87.27,19.41,0,678,0,23.64,25.67,1.1866,13.82,2.0057,0.2469,,,
244,2023/06/11 04:00,,,,22.09,86.80,19.54,76,678,0,24.13,25.67,1.1835,13.82,2.0005,0.2468,,,
245,2023/06/11 05:00,,,,22.22,87.80,19.69,836,689,0,23.86,25.62,1.1897,13.79,2.0152,0.2475,,,
246,2023/06/11 06:00,,,,22.95,87.62,20.52,2802,668,0,23.96,25.60,1.1907,13.77,2.0184,0.2476,,,
247,2023/06/11 07:00,,,,23.41,85.96,21.08,3366,661,0,23.53,25.65,1.1969,13.80,2.0248,0.2487,,,
248,2023/06/11 08:00,,,,24.05,85.28,21.85,6764,642,0,23.32,25.62,1.1973,13.78,2.0283,0.2484,,,
249,2023/06/11 09:00,,,,25.66,81.09,23.92,10481,622,0,23.33,25.62,1.2027,13.78,2.0374,0.2495,,,